TimePST,TemperatureF,Dew PointF,Humidity,Sea Level PressureIn,VisibilityMPH,Wind Direction,Wind SpeedMPH,Gust SpeedMPH,PrecipitationIn,Events,Conditions,WindDirDegrees,DateUTC
12:56 AM,45.0,33.1,63,29.78,10.0,North,15.0,-,N/A,,Scattered Clouds,360,2013-11-15 08:56:00
1:56 AM,42.1,33.1,70,29.80,10.0,North,15.0,-,N/A,,Partly Cloudy,10,2013-11-15 09:56:00
2:56 AM,41.0,30.0,65,29.80,10.0,North,13.8,-,N/A,,Overcast,10,2013-11-15 10:56:00
3:56 AM,39.9,30.9,70,29.80,10.0,North,15.0,24.2,0.00,Rain,Light Rain,10,2013-11-15 11:56:00
4:56 AM,37.9,32.0,79,29.81,10.0,North,11.5,-,0.00,,Overcast,10,2013-11-15 12:56:00
5:56 AM,37.0,33.1,86,29.81,10.0,NW,4.6,-,0.00,Rain,Light Rain,320,2013-11-15 13:56:00
6:13 AM,37.0,33.1,86,29.89,10.0,NW,4.6,-,0.00,Rain,Light Rain,320,2013-11-15 14:13:00
6:56 AM,37.0,33.1,86,29.83,10.0,NW,4.6,-,0.00,Rain,Light Rain,320,2013-11-15 14:56:00
7:51 AM,37.4,33.8,87,29.90,10.0,WSW,4.6,-,0.00,,Mostly Cloudy,240,2013-11-15 15:51:00
7:56 AM,37.0,33.1,86,29.83,10.0,WSW,4.6,-,0.00,,Mostly Cloudy,250,2013-11-15 15:56:00
8:56 AM,41.0,32.0,70,29.84,10.0,North,8.1,-,N/A,,Scattered Clouds,350,2013-11-15 16:56:00
9:56 AM,43.0,27.0,53,29.85,10.0,North,11.5,-,N/A,,Scattered Clouds,10,2013-11-15 17:56:00
10:56 AM,46.0,27.0,47,29.84,10.0,NE,8.1,-,N/A,,Scattered Clouds,50,2013-11-15 18:56:00
11:56 AM,46.9,25.0,42,29.82,10.0,NE,6.9,-,N/A,,Scattered Clouds,50,2013-11-15 19:56:00
12:56 PM,46.9,25.0,42,29.80,10.0,NNW,3.5,-,N/A,,Scattered Clouds,330,2013-11-15 20:56:00
1:56 PM,46.0,23.0,40,29.77,10.0,Calm,Calm,-,N/A,,Mostly Cloudy,0,2013-11-15 21:56:00
2:56 PM,46.0,24.1,42,29.75,10.0,SW,3.5,-,N/A,,Mostly Cloudy,230,2013-11-15 22:56:00
3:56 PM,46.9,24.1,41,29.74,10.0,South,4.6,-,N/A,,Mostly Cloudy,180,2013-11-15 23:56:00
4:56 PM,43.0,24.1,47,29.73,10.0,ESE,3.5,-,N/A,,Scattered Clouds,120,2013-11-16 00:56:00
5:56 PM,35.1,21.0,57,29.72,10.0,East,8.1,-,N/A,,Scattered Clouds,80,2013-11-16 01:56:00
6:56 PM,36.0,21.9,57,29.71,10.0,ESE,4.6,-,N/A,,Mostly Cloudy,120,2013-11-16 02:56:00
7:56 PM,36.0,21.9,57,29.71,10.0,SE,4.6,-,N/A,,Mostly Cloudy,140,2013-11-16 03:56:00
8:56 PM,36.0,21.9,57,29.69,10.0,SSE,6.9,-,N/A,,Mostly Cloudy,150,2013-11-16 04:56:00
9:56 PM,33.1,21.9,64,29.69,10.0,SSE,8.1,-,N/A,,Mostly Cloudy,160,2013-11-16 05:56:00
10:56 PM,36.0,23.0,59,29.69,10.0,SE,8.1,-,N/A,,Scattered Clouds,140,2013-11-16 06:56:00
11:56 PM,34.0,23.0,64,29.68,10.0,SE,8.1,-,N/A,,Partly Cloudy,140,2013-11-16 07:56:00